TimePDT,TemperatureF,Dew PointF,Humidity,Sea Level PressureIn,VisibilityMPH,Wind Direction,Wind SpeedMPH,Gust SpeedMPH,PrecipitationIn,Events,Conditions,WindDirDegrees,DateUTC
12:53 AM,41.0,35.1,79,29.85,10.0,West,11.5,-,N/A,,Overcast,280,2013-09-25 07:53:00
1:53 AM,37.9,34.0,86,29.85,10.0,WNW,13.8,-,N/A,,Mostly Cloudy,300,2013-09-25 08:53:00
2:43 AM,37.4,33.8,87,29.87,10.0,West,6.9,-,N/A,,Mostly Cloudy,280,2013-09-25 09:43:00
2:53 AM,37.0,33.1,86,29.85,10.0,West,5.8,-,N/A,,Overcast,280,2013-09-25 09:53:00
3:34 AM,37.4,32.0,81,29.87,10.0,Calm,Calm,-,N/A,,Mostly Cloudy,0,2013-09-25 10:34:00
3:53 AM,37.0,32.0,82,29.84,10.0,WNW,3.5,-,N/A,,Mostly Cloudy,290,2013-09-25 10:53:00
4:53 AM,36.0,32.0,86,29.84,10.0,SW,5.8,-,N/A,,Mostly Cloudy,230,2013-09-25 11:53:00
5:53 AM,37.0,32.0,82,29.86,10.0,WSW,4.6,-,N/A,,Overcast,250,2013-09-25 12:53:00
6:31 AM,37.4,33.8,87,29.88,10.0,WSW,4.6,-,N/A,,Overcast,250,2013-09-25 13:31:00
6:53 AM,37.0,33.1,86,29.88,10.0,West,6.9,-,N/A,,Overcast,260,2013-09-25 13:53:00
7:53 AM,37.9,34.0,86,29.89,10.0,West,9.2,-,N/A,,Overcast,270,2013-09-25 14:53:00
8:53 AM,39.0,35.1,86,29.90,10.0,West,6.9,-,N/A,,Mostly Cloudy,280,2013-09-25 15:53:00
9:53 AM,42.1,34.0,73,29.90,10.0,NNW,4.6,-,N/A,,Overcast,330,2013-09-25 16:53:00
10:06 AM,42.8,33.8,70,29.91,10.0,NW,3.5,-,N/A,,Overcast,310,2013-09-25 17:06:00
10:53 AM,43.0,33.1,68,29.90,10.0,SW,3.5,-,N/A,,Mostly Cloudy,220,2013-09-25 17:53:00
11:53 AM,46.9,34.0,61,29.88,10.0,West,5.8,-,0.00,,Scattered Clouds,260,2013-09-25 18:53:00
12:53 PM,44.1,36.0,73,29.89,9.0,North,-9999.0,-,0.00,Rain,Light Rain,0,2013-09-25 19:53:00
1:25 PM,46.4,37.4,71,29.89,10.0,West,13.8,19.6,N/A,,Scattered Clouds,280,2013-09-25 20:25:00
1:53 PM,46.0,33.1,61,29.88,-9999.0,West,8.1,-,N/A,Rain,Rain,280,2013-09-25 20:53:00
2:05 PM,44.6,35.6,71,29.89,10.0,NW,12.7,20.7,N/A,Rain,Rain,320,2013-09-25 21:05:00
2:53 PM,43.0,36.0,76,29.90,10.0,West,15.0,-,N/A,Rain,Rain,280,2013-09-25 21:53:00
3:53 PM,45.0,35.1,68,29.90,10.0,WNW,8.1,-,N/A,,Overcast,290,2013-09-25 22:53:00
4:53 PM,44.1,36.0,73,29.90,10.0,West,6.9,-,N/A,,Clear,260,2013-09-25 23:53:00
5:53 PM,46.9,34.0,61,29.91,10.0,East,5.8,-,N/A,,Scattered Clouds,90,2013-09-26 00:53:00
6:53 PM,43.0,32.0,65,29.92,10.0,NNE,6.9,-,N/A,,Mostly Cloudy,20,2013-09-26 01:53:00
7:53 PM,43.0,34.0,71,29.93,10.0,North,8.1,-,N/A,,Scattered Clouds,350,2013-09-26 02:53:00
8:53 PM,37.9,33.1,83,29.96,10.0,WNW,5.8,-,N/A,,Scattered Clouds,290,2013-09-26 03:53:00
9:53 PM,37.9,32.0,79,29.96,10.0,WNW,6.9,-,N/A,,Clear,290,2013-09-26 04:53:00
10:53 PM,36.0,32.0,86,29.98,10.0,WNW,11.5,-,N/A,,Scattered Clouds,290,2013-09-26 05:53:00
11:53 PM,37.9,32.0,79,29.96,10.0,WNW,8.1,-,N/A,,Partly Cloudy,290,2013-09-26 06:53:00